PST,Max TemperatureF,Mean TemperatureF,Min TemperatureF,Max Dew PointF,MeanDew PointF,Min DewpointF,Max Humidity, Mean Humidity, Min Humidity, Max Sea Level PressureIn, Mean Sea Level PressureIn, Min Sea Level PressureIn, Max VisibilityMiles, Mean VisibilityMiles, Min VisibilityMiles, Max Wind SpeedMPH, Mean Wind SpeedMPH, Max Gust SpeedMPH,PrecipitationIn, CloudCover, Events, WindDirDegrees
2014-2-1,57,48,39,41,37,32,87,71,41,30.18,30.12,30.09,10,10,10,10,4,,0.00,0,,293
2014-2-2,50,47,44,46,39,32,100,79,57,30.08,29.96,29.87,10,9,3,13,4,23,0.00,5,Rain,147
2014-2-3,53,47,41,45,40,36,100,80,51,30.10,30.05,30.00,10,10,10,16,4,21,0.00,4,,293
2014-2-4,53,46,39,43,39,34,93,79,50,30.18,30.13,30.09,10,10,10,10,3,,0.00,2,,261
2014-2-5,55,47,39,46,41,36,93,80,54,30.22,30.16,30.07,10,10,6,10,3,16,0.00,5,Rain,237
2014-2-6,53,50,46,50,47,45,100,92,82,30.07,29.98,29.91,10,7,2,16,6,18,0.06,8,Rain,128
2014-2-7,57,54,50,50,49,48,100,87,72,30.10,30.05,30.01,10,9,3,22,5,29,0.00,6,Rain,171
2014-2-8,60,56,53,57,53,50,100,88,77,30.17,30.12,30.06,10,8,2,17,11,24,0.00,8,Rain,163
2014-2-9,60,58,57,57,56,55,100,93,88,30.18,30.13,30.08,10,6,2,14,9,17,0.00,8,Rain,196
2014-2-10,59,54,50,55,51,48,100,88,72,30.29,30.22,30.13,10,9,4,10,4,,0.00,5,,297
2014-2-11,57,52,46,50,47,45,100,92,72,30.27,30.24,30.19,10,8,0,10,2,,0.00,4,Fog,248
2014-2-12,57,52,46,50,47,45,100,91,77,30.30,30.24,30.20,10,8,2,8,2,,0.00,4,,186
2014-2-13,68,59,50,57,53,48,100,94,68,30.24,30.18,30.11,10,6,0,9,3,,0.00,4,Fog,304
2014-2-14,62,56,50,55,52,48,100,88,63,30.18,30.13,30.08,10,9,2,9,2,,0.00,5,,301
2014-2-15,60,54,48,54,50,48,100,88,72,30.07,30.03,30.00,10,10,5,16,2,,0.00,4,Rain,197
2014-2-16,62,55,48,55,45,25,100,75,24,30.22,30.13,30.06,10,10,2,12,5,,0.00,2,Rain,287
2014-2-17,59,50,42,48,43,39,87,78,48,30.20,30.15,30.11,10,10,10,13,4,,0.00,2,,291
2014-2-18,64,54,44,50,45,43,93,80,52,30.21,30.16,30.12,10,10,10,13,2,,0.00,2,,298
2014-2-19,62,56,48,54,47,41,94,76,45,30.22,30.17,30.13,10,10,2,14,6,18,0.00,4,,282
2014-2-20,66,56,46,45,40,32,87,67,32,30.23,30.18,30.13,10,10,10,6,1,,0.00,2,,285
2014-2-21,69,58,46,48,41,36,82,67,30,30.13,30.08,29.99,10,10,10,8,1,,0.00,1,,313
2014-2-22,68,56,44,50,44,41,93,77,40,30.04,30.00,29.93,10,10,6,12,1,,0.00,2,,323
2014-2-23,66,56,46,52,46,43,93,82,52,30.05,30.00,29.96,10,9,4,9,1,,0.00,3,,358
2014-2-24,71,58,46,50,45,41,93,78,35,30.02,29.98,29.91,10,10,10,8,1,,0.00,0,,331
2014-2-25,62,55,48,50,47,45,94,79,59,29.99,29.95,29.91,10,9,4,12,3,16,0.00,4,,299
2014-2-26,59,56,53,55,50,46,94,77,67,29.97,29.87,29.70,10,9,2,17,8,25,0.00,7,Rain,157
2014-2-27,64,60,55,54,49,45,82,69,49,29.91,29.77,29.51,10,10,5,15,7,18,0.00,7,Rain,184
2014-2-28,62,58,53,54,51,45,94,84,52,29.51,29.44,29.39,10,7,2,28,12,37,0.16,7,Rain,144